SCP
0 0 0 0 0 0 0 0 0 0 0 0 0 1 1 1 1 1 2 2 2 2 3 4 4 4 3 3 3 3 3 3 3 3 2 2 1 1 1 1 1 1 1 1
0 0 0 0 0 0 0 0 0 0 0 0 0 0 1 1 1 1 1 2 2 2 3 5 5 4 3 3 3 3 4 4 3 3 2 2 1 1 1 1 1 1 1 1
0 0 0 0 0 0 0 0 0 0 0 0 0 0 1 1 1 1 1 2 2 2 4 5 5 4 3 3 3 3 4 4 4 3 2 2 1 1 1 1 1 1 1 1
0 0 0 0 0 0 0 0 0 0 0 0 0 0 0 1 1 1 1 1 2 2 3 5 5 4 3 4 4 3 3 3 4 3 2 2 1 1 1 1 1 1 1 1
0 0 0 0 0 0 0 0 0 0 0 0 0 0 0 0 1 1 1 1 1 2 2 4 4 3 3 3 3 3 3 3 3 3 2 2 2 2 2 1 1 1 1 1
0 0 0 0 0 0 0 0 0 0 0 0 0 0 0 0 1 1 1 1 1 2 2 2 3 3 2 2 2 3 3 2 2 2 2 2 2 2 2 2 2 2 1 1
0 0 0 0 0 0 0 0 0 0 0 0 0 0 0 1 1 1 1 1 1 2 2 2 2 2 2 2 2 2 2 2 2 2 2 2 2 2 2 2 2 2 2 2
0 0 0 0 0 0 0 0 0 0 0 0 0 0 0 1 1 1 1 1 1 2 2 2 2 3 3 2 2 2 2 2 2 2 2 2 2 2 2 2 2 2 2 2
0 0 0 0 0 0 0 0 0 0 0 0 0 0 0 1 1 1 1 1 1 2 2 2 2 3 3 3 2 2 2 2 2 2 2 2 2 2 2 2 2 2 1 1
0 0 0 0 0 0 0 0 0 0 0 0 0 0 0 0 1 1 1 1 2 2 2 2 2 3 3 3 2 2 2 2 2 2 2 2 2 3 2 2 2 2 2 2
0 0 0 0 0 0 0 0 0 0 0 0 0 0 0 0 1 1 1 2 2 2 2 2 2 3 3 3 2 2 2 2 3 3 3 3 3 3 3 3 3 2 2 2
0 0 0 0 0 0 0 0 0 0 0 0 0 0 0 1 1 1 2 2 3 3 2 2 3 3 3 3 2 2 2 2 3 3 4 4 4 4 4 4 4 3 3 3
0 0 0 0 0 0 0 0 0 0 0 0 0 0 0 1 1 1 2 3 4 4 4 4 4 3 3 3 3 3 3 3 3 4 5 5 5 5 5 5 5 4 4 3
0 0 0 0 0 0 0 0 0 0 0 0 0 0 1 1 1 2 2 3 5 5 5 6 5 4 4 4 4 3 3 3 4 4 5 5 6 6 7 7 6 5 4 4
0 0 0 0 0 0 0 0 0 0 0 0 0 1 1 2 2 2 2 3 5 6 7 7 6 6 6 5 5 4 3 4 5 5 5 6 6 7 7 8 7 6 5 4
0 0 0 0 0 0 0 0 0 0 0 0 1 1 2 2 2 3 3 4 5 7 7 7 7 7 7 6 5 4 4 4 5 6 6 7 8 8 8 8 8 6 5 4
0 0 0 0 0 0 0 1 1 1 1 1 1 2 2 2 2 3 3 3 5 7 7 7 7 7 7 6 5 5 5 6 6 6 7 9 10 10 9 9 8 7 5 4
1 0 0 0 0 0 1 1 1 1 2 2 2 2 3 3 3 3 3 4 4 6 7 7 7 7 7 6 6 6 6 7 7 7 9 11 13 13 12 12 11 9 6 5
1 1 0 0 0 0 1 1 1 2 2 3 3 3 3 3 3 4 5 5 6 7 8 8 7 8 9 8 7 6 7 8 9 9 11 13 15 16 16 16 15 11 8 7
1 1 1 0 0 1 1 2 2 2 3 3 3 3 3 4 4 5 6 7 8 10 11 11 10 10 10 9 8 7 8 9 10 10 11 13 16 17 19 19 18 14 10 8
1 1 1 0 1 1 2 2 2 2 3 4 4 4 4 5 5 6 7 8 11 13 14 13 12 11 10 10 10 10 10 10 11 11 11 12 14 17 19 20 19 14 10 8
1 1 1 1 1 2 3 3 3 3 4 4 5 5 5 6 6 6 8 10 13 15 15 13 11 10 9 10 11 12 11 10 12 12 12 12 13 15 18 20 18 13 10 9
2 3 3 2 3 3 4 4 4 4 5 5 5 6 7 7 8 8 9 10 12 13 12 10 8 7 7 8 10 11 11 11 12 13 13 13 13 15 17 18 16 12 9 9
4 4 4 4 4 4 5 5 5 5 5 5 6 7 7 8 8 8 8 8 9 9 8 7 7 6 7 8 9 10 10 11 13 14 13 12 13 15 16 16 14 11 10 9
4 4 4 4 4 4 5 5 5 5 5 6 6 7 7 7 7 7 7 7 7 6 6 7 7 6 7 8 9 10 10 12 12 12 11 10 12 14 14 13 10 10 8 7
3 4 4 4 4 4 5 5 5 5 6 6 6 6 6 6 6 7 7 7 7 7 6 7 7 7 7 8 9 9 10 11 11 10 9 10 12 14 13 10 8 7 5 4
Wind_Speed
5 9 9 5 3 3 3 4 3 1 0 5 6 5 4 6 8 9 9 10 10 10 9 9 10 10 10 10 10 10 10 9 7 5 5 4 4 4 4 4 5 5 5 5
9 10 4 2 3 5 5 6 4 3 1 4 5 5 3 6 8 8 9 10 10 10 10 10 10 10 11 11 11 11 11 10 9 6 4 3 3 3 3 3 3 5 5 5
11 4 4 6 7 8 7 6 3 1 3 5 7 7 5 6 7 7 9 9 10 10 11 11 11 11 11 11 11 10 10 10 9 8 5 4 3 3 4 5 4 5 5 5
7 5 5 8 8 8 6 2 2 4 7 3 4 4 4 4 6 8 9 9 10 10 10 11 11 11 11 11 10 10 10 10 9 9 7 7 5 5 4 4 3 4 5 5
7 7 8 9 6 6 1 1 3 5 6 6 4 7 1 4 4 6 7 8 9 9 10 11 11 10 10 10 9 9 10 10 10 9 8 8 7 5 4 4 4 4 4 5
4 4 5 5 3 3 5 5 4 7 8 8 3 6 3 1 0 2 5 7 7 8 9 9 10 10 9 9 9 9 10 9 9 10 9 9 7 6 5 5 4 4 3 3
9 9 7 6 8 8 9 9 7 8 8 5 2 6 2 2 1 1 2 5 7 8 9 10 10 11 10 10 10 10 10 10 10 10 9 8 7 7 7 6 5 4 3 3
12 12 11 9 11 9 10 11 9 7 6 4 6 5 0 2 0 1 3 5 8 9 9 10 10 11 11 11 11 10 10 9 9 9 8 7 7 6 5 5 4 4 3 3
9 9 7 6 7 9 10 11 9 8 7 7 4 2 3 3 4 4 5 6 8 9 9 9 10 11 11 10 10 10 10 9 9 9 8 7 7 6 5 5 5 4 3 3
7 7 9 8 7 4 7 7 7 9 8 9 6 6 3 2 3 4 6 7 8 9 9 9 10 10 10 10 9 9 9 8 8 8 7 6 7 7 5 5 4 4 3 3
10 9 8 10 11 12 9 9 9 8 8 8 6 3 3 1 0 2 5 7 8 9 10 9 9 10 10 10 10 10 9 8 8 7 7 6 6 6 5 5 4 4 4 3
10 9 9 10 5 4 10 11 11 10 8 8 9 2 5 1 0 0 2 5 7 7 8 9 10 10 10 11 10 10 9 9 8 7 7 7 6 6 6 5 5 4 4 4
7 8 10 11 10 9 10 10 11 11 8 9 10 4 6 2 0 0 1 4 6 7 8 9 10 10 10 10 10 10 10 9 8 8 8 7 7 7 6 5 5 4 4 3
6 10 12 13 8 10 12 12 12 13 11 11 11 8 2 0 1 1 1 3 6 7 8 9 10 10 9 9 9 9 9 9 9 8 8 7 7 6 6 5 5 4 4 4
6 11 12 12 9 8 12 13 14 15 14 12 10 9 5 3 3 2 0 3 5 7 8 9 9 9 10 10 9 9 9 9 8 8 8 7 7 6 6 5 5 4 4 4
4 8 10 12 12 11 12 13 13 14 13 12 10 7 2 2 2 2 1 3 5 6 8 8 9 9 10 10 9 9 9 9 8 8 8 7 7 7 6 6 5 5 4 3
6 7 10 13 12 12 16 14 13 13 11 11 11 5 1 2 2 2 1 2 3 5 6 8 8 8 8 9 9 10 9 9 9 9 8 8 8 7 7 7 6 5 4 4
7 8 8 11 11 16 9 5 8 10 8 7 5 2 2 2 1 2 2 1 1 3 4 6 6 7 8 8 9 9 10 10 9 9 8 8 8 7 7 7 6 6 4 4
9 9 9 11 14 14 7 5 6 8 7 4 4 3 2 1 3 3 5 3 1 1 2 3 5 6 7 8 8 9 10 9 9 9 8 8 8 7 7 7 6 5 5 4
9 9 10 11 15 15 7 5 3 6 7 3 2 1 2 3 5 3 5 4 3 1 1 2 3 5 6 7 8 9 9 9 9 8 8 7 7 7 7 7 6 5 5 5
10 10 13 14 13 8 1 2 6 10 3 3 0 1 1 1 4 4 3 4 4 3 2 2 3 4 5 6 7 7 7 7 7 7 7 7 7 7 7 6 6 6 5 5
9 10 11 11 13 7 4 2 3 3 4 2 2 2 2 2 2 3 3 4 4 4 4 3 3 3 4 5 5 5 6 6 6 7 8 8 7 6 6 6 6 5 5 5
4 4 3 3 1 5 3 2 3 2 2 2 2 2 2 2 2 3 3 4 4 4 4 3 4 4 4 4 3 4 4 5 6 7 7 8 7 6 6 7 7 6 5 4
3 2 2 2 2 2 3 3 3 3 3 3 3 3 2 2 2 3 3 3 3 3 3 2 3 3 3 3 3 3 4 5 6 6 7 7 7 6 6 5 5 5 5 4
2 3 3 3 2 2 3 3 4 4 4 4 4 4 3 3 3 2 2 2 2 3 3 2 2 2 3 3 3 3 3 4 5 6 5 6 6 6 5 4 2 2 2 1
4 5 5 3 1 1 1 2 2 2 3 4 4 4 3 3 2 2 3 2 2 2 2 2 2 2 2 2 2 2 2 3 5 5 5 4 4 5 5 5 4 5 3 5
Wind_Direction
212 226 218 212 247 295 267 254 235 142 2 256 252 259 210 186 206 201 195 193 194 196 188 186 190 194 191 190 191 192 193 184 188 192 202 202 200 197 204 212 202 209 214 205
207 216 208 195 201 221 233 241 222 165 141 268 274 267 227 198 212 212 205 200 200 193 184 183 191 192 194 191 193 191 190 189 195 191 200 209 211 211 205 221 207 217 213 218
224 164 163 199 200 213 224 251 257 229 202 222 267 234 190 184 203 210 215 210 205 199 190 185 190 192 193 191 193 192 189 189 196 192 195 194 196 216 211 212 207 216 216 220
221 175 197 211 211 228 216 226 254 237 246 227 280 282 155 172 195 202 207 204 202 198 194 188 187 190 192 191 188 186 186 189 191 191 202 206 212 219 216 220 213 214 221 226
188 191 208 216 213 231 205 124 228 244 254 262 236 277 149 170 201 193 194 198 196 193 192 188 187 187 186 185 183 182 184 188 190 196 203 213 222 224 218 214 209 225 220 226
194 190 233 225 191 198 156 180 192 228 243 244 254 277 268 145 149 161 168 180 184 183 183 181 180 179 180 180 180 179 180 187 189 196 205 214 220 219 220 221 219 222 216 220
204 204 200 210 193 183 209 222 221 220 222 231 148 259 287 36 25 279 171 167 168 171 173 173 177 177 179 180 181 180 181 187 190 196 203 208 212 212 216 225 217 229 228 217
205 203 196 204 223 209 216 235 246 257 249 202 177 247 280 82 88 216 183 158 160 165 168 171 174 175 178 181 182 183 185 187 188 194 198 203 207 215 215 216 232 225 237 239
219 207 170 197 221 236 211 230 251 257 266 270 233 237 219 171 179 166 163 160 162 165 165 168 171 174 177 181 182 183 183 186 186 190 191 194 200 214 221 215 223 224 226 230
236 222 180 174 188 207 263 229 223 242 247 252 236 232 228 158 168 170 175 174 166 165 167 168 170 172 172 174 174 177 180 183 185 186 191 188 194 202 211 220 217 224 228 232
235 232 192 189 211 200 191 211 229 237 253 262 255 219 96 143 174 198 188 181 173 173 171 169 169 168 168 168 168 171 175 180 182 184 185 188 188 193 200 204 208 211 216 212
221 235 226 210 193 273 229 222 216 228 228 248 270 241 103 102 18 238 190 171 172 172 168 167 165 166 170 170 170 171 175 178 179 178 178 181 183 189 192 193 197 198 199 202
203 225 222 210 198 202 223 224 229 238 237 239 247 228 116 118 248 165 185 167 168 170 168 166 166 170 173 172 172 172 176 175 175 173 176 176 181 184 188 185 184 186 185 188
231 231 238 237 225 200 207 212 218 228 233 234 241 257 214 275 353 29 135 171 171 170 170 172 171 175 173 170 171 173 175 172 173 173 175 176 179 178 177 174 174 174 176 179
233 231 235 253 258 241 229 221 214 225 243 249 241 243 255 311 330 338 207 172 173 171 175 177 178 174 174 172 172 173 172 171 174 175 174 173 170 168 168 168 168 165 169 171
241 248 235 237 238 236 241 231 222 227 235 244 244 242 271 329 338 330 226 185 187 185 183 182 180 175 176 176 176 173 173 171 173 176 174 167 166 166 165 164 162 161 163 160
231 233 234 234 226 231 234 228 225 225 229 236 237 240 282 300 343 345 320 221 210 201 193 189 185 182 178 178 178 176 172 171 174 174 170 168 170 169 169 166 162 165 167 161
240 240 237 237 220 232 233 228 231 228 228 235 244 253 286 320 16 41 7 321 238 210 201 192 188 181 177 176 176 175 171 171 172 171 168 166 170 169 168 167 164 164 165 161
227 231 238 233 226 227 203 193 210 215 214 216 224 230 254 261 204 114 45 14 331 239 207 191 193 181 172 171 171 171 172 169 170 170 169 168 168 166 168 167 163 163 165 163
201 221 236 231 236 232 204 159 207 226 207 175 219 246 281 255 245 72 29 16 21 26 121 172 178 166 161 164 166 171 172 170 174 172 169 165 168 171 173 169 167 165 168 162
195 206 225 230 234 233 69 139 198 220 177 100 79 333 308 11 1 27 24 32 38 51 70 110 142 150 152 157 164 172 169 172 170 164 161 162 168 173 170 166 167 167 170 164
226 216 217 229 233 216 50 169 221 35 51 65 48 32 33 49 35 45 45 40 43 56 66 87 110 117 129 146 163 169 167 164 164 162 161 160 165 169 162 162 163 167 169 165
251 295 283 273 288 60 44 38 38 36 44 33 27 34 44 41 40 48 50 47 48 53 61 77 101 111 115 131 158 165 156 160 166 164 164 162 162 162 162 165 165 167 173 181
191 275 252 210 143 88 66 70 62 55 42 23 24 22 31 42 41 41 37 40 42 45 48 65 88 104 114 125 138 144 150 164 166 167 165 161 158 158 160 169 173 173 177 183
281 241 231 218 183 159 116 72 54 47 39 36 32 31 27 33 43 39 30 26 31 34 23 38 70 92 102 113 114 124 150 165 165 162 159 158 158 156 157 154 137 171 159 169
256 263 259 253 212 246 128 58 34 31 31 26 21 23 25 25 27 22 15 8 17 26 34 47 58 74 87 102 108 123 150 166 171 166 163 161 159 160 163 154 139 66 71 88